Regional Weather Roundup
Issued by NWS Pendleton, OR

Current Version | Previous Version | Text Only | Print | Product List | Glossary On
Versions: 1 2 3 4 5 6 7 8 9 10 11 12 13 14 15 16 17 18 19 20 21 22 23 24 25 26 27 28 29 30 31 32 33 34 35 36 37 38 39 40 41 42 43 44 45 46 47 48 49 50
523 ASUS46 KPDT 191725 RWRPDT PENDLETON REGIONAL WEATHER ROUNDUP NATIONAL WEATHER SERVICE PENDLETON OREGON 1000 AM PDT MON APR 19 2021 NOTE: FAIR INDICATES FEW OR NO CLOUDS BELOW 12,000 FEET WITH NO SIGNIFICANT WEATHER AND/OR OBSTRUCTIONS TO VISIBILITY. # INDICATES UNOFFICIAL STATION AND DATA WAZ520-191810- EAST SLOPES OF WASHINGTON CASCADES CITY SKY/WX TMP DP RH WIND PRES REMARKS #BULLFROG N/A 51 26 37 NE10 N/A #EASTON DOT N/A 48 26 42 CALM N/A #ELK HTS DOT N/A 50 50 100 E6 N/A #GLENWOOD N/A 50 30 46 N8 30.31R #NELSON 3SW N/A 47 30 51 CALM 30.49R #NILE N/A 50 28 42 NE1 29.67F #TROUT LAKE 1NE N/A 51 33 50 SE2 30.27R #TROUT LAKE 1E N/A 54 34 47 CALM 30.34R $$ WAZ521-191810- SIMCOE HIGHLANDS CITY SKY/WX TMP DP RH WIND PRES REMARKS #SATUS PASS DOT N/A 45 21 38 N6 N/A #CENTERVILLE 1SWN/A 51 28 41 E14 30.28R #LYLE 6NE N/A 52 34 50 CALM 30.31R #PITT 4SE N/A 51 32 48 CALM 30.31R $$ WAZ026-191810- KITTITAS VALLEY CITY SKY/WX TMP DP RH WIND PRES REMARKS ELLENSBURG AP FAIR 53 22 29 E10 30.36S #ELLENSBURG CWU N/A 52 25 35 E6 30.28S #ELLENSBURG 3NE N/A 50 26 39 N7 28.42R #ELLENSBURG 1E N/A 52 25 35 E3 30.36S #KITTITAS 3S N/A 51 28 41 E8 30.34R #MANASTASH RDG N/A 45 18 33 NE13 N/A WCI 39 #ROCKY CYN DOT N/A 50 30 46 E6 N/A #RYEGRASS DOT N/A 45 21 38 E16G26 N/A WCI 38 $$ WAZ027-191810- YAKIMA VALLEY CITY SKY/WX TMP DP RH WIND PRES REMARKS SUNNYSIDE AP PTCLDY 54 21 27 E6 30.39R YAKIMA AIRPORT FAIR 54 20 26 NE12 30.39S YAKIMA-VAGABOND FAIR 53 16 23 NE14 30.36S #MABTON N/A 52 24 33 E5 30.38S #NACHES 2SW N/A 50 26 39 SE2 30.29S #OUTLOOK DOT N/A 53 17 24 CALM N/A #PARKER DOT N/A 55 18 23 CALM N/A #TERRACE HTS N/A 53 23 31 N1 30.34S #TOPPENISH N/A 52 23 32 CALM 30.29S #I82 S UMTANUM RN/A 48 23 37 NE14 N/A WCI 42 #UNION GAP DOT N/A 53 19 26 VRB5 N/A #ZILLAH DOT N/A 53 16 23 NE15 N/A $$ WAZ028-191810- LOWER COLUMBIA BASIN...WASHINGTON CITY SKY/WX TMP DP RH WIND PRES REMARKS PASCO FAIR 57 23 27 N9 30.37S PROSSER AWOS N/A 55 19 24 NE10 30.41R RICHLAND AWOS FAIR 57 23 27 N10 30.38R #BASIN CITY 5SW N/A 54 23 30 N12 30.35R #BENTON CITY N/A 52 24 33 N10 30.27S #CONNELL 5N N/A 52 22 31 N12 30.33R #CONNELL 5NW N/A 51 26 37 N9 30.28R #ELTOPIA 6NW N/A 52 28 39 CALM 29.32R #KAHLOTUS N/A 49 24 37 SE18G32 30.31R WCI 43 #KENNEWICK 3S N/A 53 27 36 N2 30.34R #PROSSER DOT N/A 54 19 25 NE3 N/A #SAGEMOOR 2W N/A 53 27 36 NE8 30.18S #TOUCHET 2S N/A 53 31 43 CALM 30.30R $$ WAZ029-191810- FOOTHILLS OF THE BLUES...WASHINGTON CITY SKY/WX TMP DP RH WIND PRES REMARKS WALLA WALLA AP FAIR 50 33 52 E5 30.31R #CLYDE 6NW N/A 50 26 39 E16G25 30.29R #DELANEY DOT N/A 52 25 35 N5 N/A #LOWDEN 2SE N/A 54 33 45 CALM 30.30R #PRESCOTT N/A 54 30 40 E7 30.29R #WHITMAN MISSIONN/A 54 33 45 CALM 30.31R $$ WAZ030-191810- BLUE MOUNTAINS...WASHINGTON CITY SKY/WX TMP DP RH WIND PRES REMARKS $$ ORZ009-041-WAZ024-191810- COLUMBIA RIVER GORGE CITY SKY/WX TMP DP RH WIND PRES REMARKS HOOD RIVER AP FAIR 59 30 33 MISG 30.36R THE DALLES AP FAIR 60 30 32 SE13 30.36R #CELILO DOT N/A 60 34 37 E7 N/A #LYLE N/A 57 33 40 SE14 30.36R #MARYHILL N/A 55 26 32 N16G25 N/A #RUFUS DOT N/A 56 28 34 S24 N/A $$ ORZ510-191810- NORTH CENTRAL OREGON CITY SKY/WX TMP DP RH WIND PRES REMARKS #ANTELOPE N/A 49 34 56 CALM 30.12R #COW CYN RST AREN/A 48 29 47 N12 N/A WCI 43 #DUFUR N/A 52 30 43 E7 30.30R #DUFUR 9E N/A 46 27 47 NW21G32 30.34R WCI 38 #GRASS VALLEY 1SN/A 48 30 49 E14G28 30.27R WCI 42 #KENT DOT N/A 47 28 47 E9 N/A #SHANIKO 5WSW N/A 46 28 49 N17G25 N/A WCI 39 #WAPANITIA AIRPON/A 51 32 48 E7 30.32R #WASCO DOT N/A 53 26 35 E18G28 N/A #WASCO 5NE N/A 50 25 37 E15G26 30.32R $$ ORZ511-191810- CENTRAL OREGON CITY SKY/WX TMP DP RH WIND PRES REMARKS BEND AIRPORT FAIR 55 27 34 N12 30.27R MADRAS AIRPORT FAIR 54 32 43 N20 30.31R PRINEVILLE AP FAIR 55 30 38 CALM 30.25S REDMOND AIRPORT FAIR 56 31 38 N15 30.26R #ASHWOOD SCHOOL N/A 52 32 46 E7 30.24R #BEND-KIM LN N/A 54 35 48 N7 30.14R #CULVER N/A 52 33 48 NW8 29.70R #PRINEVILLE N/A 57 34 42 NW2 30.27S #WARM SPRINGS N/A 55 33 43 CALM 30.14R $$ ORZ509-191810- EAST SLOPES OF OREGON CASCADES CITY SKY/WX TMP DP RH WIND PRES REMARKS SISTERS AWOS N/A 54 32 43 N10 30.22R SUNRIVER AWOS FAIR 52 28 39 N15 30.29R #BLUE BOX PASS N/A 42 N/A N/A CALM N/A #LAVA BUTTE DOT N/A 51 30 44 N1 N/A #SISTERS ODOT N/A 55 30 38 SE3 N/A #TUMALO 3W N/A 51 30 44 N7 30.04R #WANOGA BUTTE D N/A 43 24 47 N10 N/A $$ ORZ044-191810- LOWER COLUMBIA BASIN...OREGON CITY SKY/WX TMP DP RH WIND PRES REMARKS HERMISTON FAIR 54 26 34 N9 30.37R #BOARDMAN SCHOOLN/A 54 28 36 NE5 30.34R #ECHO 8SW N/A 52 29 41 NE7 30.39R #I-84 EX 198 DOTN/A 49 35 58 E6 N/A #IONE SCHOOL N/A 50 29 44 N5 30.35R #UMATILLA N/A 54 26 34 NE5 30.29R $$ ORZ507-191810- NORTHERN FOOTHILLS OF THE BLUES CITY SKY/WX TMP DP RH WIND PRES REMARKS PENDLETON AIRPT FAIR 49 27 42 W7 30.33R #CAYUSE N/A 47 31 53 SW8 30.28R #HELIX SCHOOL N/A 47 29 49 NW1 30.29R #HELIX 3N N/A 47 29 49 N2 30.30R #HOLDMAN 5SE N/A 49 29 46 CALM 30.32R #HOLDMAN 6E N/A 47 28 47 NW1 30.09R #M-FREEWATER 5SEN/A 48 33 56 W3 30.30R #PDT SUNRIDGE N/A 51 30 44 W2 30.30R #PENDLETON 6SE N/A 49 32 52 W1 30.24R #TUTUILLA N/A 49 31 50 W2 30.37R #UMAPINE 2E N/A 50 34 54 CALM 30.30R #WESTON SCHOOL N/A 45 28 51 N5 30.01R $$ ORZ508-191810- SOUTHERN FOOTHILLS OF THE BLUES CITY SKY/WX TMP DP RH WIND PRES REMARKS #HEPPNER EOC N/A 47 31 53 CALM 30.23R #HEPPNER 4NE N/A 43 30 60 NW5 30.27R #OLEX 4N N/A 50 29 44 N9 30.35R #RUGGS 2SW N/A 44 31 60 NE7 30.33R $$ ORZ502-503-191810- BLUE MOUNTAINS CITY SKY/WX TMP DP RH WIND PRES REMARKS MEACHAM FAIR 43 29 57 VRB5 30.26R #BATTLE MTN DOT N/A 41 28 59 NW3 N/A #LADD CYN SMT N/A 47 30 51 NW17G29 N/A WCI 40 #LADD CREEK ODOTN/A 48 30 49 N5 N/A #N POWDER DOT N/A 50 29 44 N20G30 N/A #TOLLGATE N/A 35 29 78 N1 30.22R #TROY SCHOOL N/A 51 31 46 E2 30.08R #WESTON 4E N/A 40 31 70 W6 30.19R $$ ORZ505-191810- JOHN DAY BASIN CITY SKY/WX TMP DP RH WIND PRES REMARKS JOHN DAY FAIR 54 25 32 N17G29 30.24R #DAYVILLE SCHOOLN/A 60 34 37 SE2 30.18R #MITCHELL 8NW N/A 51 32 48 CALM 30.22R #MONUMENT HS N/A 60 24 25 W6 30.09R #MT. VERNON 5SE N/A 51 28 41 N5 30.24R #SPRAY SCHOOL N/A 58 N/A N/A W10 N/A $$ ORZ506-191810- OCHOCO AND JOHN DAY HIGHLANDS CITY SKY/WX TMP DP RH WIND PRES REMARKS #BUCK CREEK DOT N/A 51 28 41 NW10 N/A #HORSE RIDGE DO N/A 51 22 32 N13 N/A #KEYES SMT DOT N/A 47 25 42 NE6 N/A #PAULINA ODOT N/A 55 29 37 N3 N/A #PRAIRIE CITY N/A 56 29 35 NW3 30.16R #SENECA 9NW N/A 46 28 49 E3 30.12R $$ ORZ049-191810- GRANDE RONDE VALLEY CITY SKY/WX TMP DP RH WIND PRES REMARKS LA GRANDE FAIR 49 29 46 NW21G30 30.23R WCI 42 #COVE SCHOOL N/A 50 32 50 E7 30.19R #COVE 6NW N/A 49 30 48 N7 30.16S #ELGIN 1E N/A 55 30 38 E3 N/A #IMBLER SCHOOL N/A 48 30 49 W3 30.16S #ISLAND CITY 4N N/A 59 44 57 CALM 30.24S #LADD CYN DOT N/A 50 32 50 NW16G24 N/A #UNION 1S N/A 50 32 50 W9G25 30.15R $$ ORZ050-191810- WALLOWA COUNTY CITY SKY/WX TMP DP RH WIND PRES REMARKS JOSEPH AIRPORT CLOUDY 44 26 49 N8 30.22R #ENTERPRISE HS N/A 45 31 58 N3 30.03R #IMNAHA SCHOOL N/A 52 32 46 CALM 30.20R #JOSEPH 3N N/A 44 27 51 N1 30.22R #LOSTINE N/A 47 30 51 N3 29.95R #LOSTINE 3SE N/A 48 29 47 NE3 30.31R #WALLOWA SCHOOL N/A 47 30 51 NE3 30.16R $$

USA.gov is the U.S. government's official web portal to all federal, state and local government web resources and services.